CQ0XBF-11 Weather Reports


time (UTC)temp
C
wind
direction
speed
KPH
gust
KPH
rain 1hr
cm
rain 24hr
cm
rain mn
cm
humidity
%
barometer
mb
20180818024414 19 274 0.0 3.2 0.00 0.00 0.00 64 1010.2
20180818024213 19 274 0.0 3.2 0.00 0.00 0.00 64 1010.2
20180818024011 19 289 1.6 6.4 0.00 0.00 0.00 64 1010.2
20180818023810 19 331 0.0 6.4 0.00 0.00 0.00 64 1010.1
20180818023608 19 275 0.0 6.4 0.00 0.00 0.00 64 1010.1
20180818023407 19 329 3.2 6.4 0.00 0.00 0.00 64 1010.0
20180818023205 19 281 4.8 6.4 0.00 0.00 0.00 64 1010.1
20180818023004 19 300 0.0 4.8 0.00 0.00 0.00 64 1010.1
20180818022802 19 327 3.2 4.8 0.00 0.00 0.00 64 1010.1
20180818022601 19 310 0.0 4.8 0.00 0.00 0.00 64 1010.1
20180818022359 20 312 1.6 4.8 0.00 0.00 0.00 63 1010.1
20180818022157 19 310 1.6 4.8 0.00 0.00 0.00 63 1010.1
20180818021956 19 317 0.0 8.0 0.00 0.00 0.00 63 1010.1
20180818021754 19 316 3.2 8.0 0.00 0.00 0.00 63 1010.0
20180818021553 20 319 0.0 4.8 0.00 0.00 0.00 63 1010.1
20180818021351 20 95 0.0 4.8 0.00 0.00 0.00 63 1010.1
20180818021149 20 322 6.4 4.8 0.00 0.00 0.00 63 1010.0
20180818020948 20 291 0.0 4.8 0.00 0.00 0.00 63 1010.1
20180818020746 20 292 0.0 4.8 0.00 0.00 0.00 63 1010.0
20180818020545 20 322 0.0 3.2 0.00 0.00 0.00 63 1010.1
20180818020343 20 291 1.6 3.2 0.00 0.00 0.00 63 1010.1
20180818020142 20 0 1.6 3.2 0.00 0.00 0.00 63 1010.1
20180818015940 20 282 0.0 3.2 0.00 0.00 0.00 63 1010.2
20180818015739 20 317 0.0 3.2 0.00 0.00 0.00 63 1010.2
20180818015537 19 317 0.0 1.6 0.00 0.00 0.00 63 1010.1
20180818015336 20 306 0.0 1.6 0.00 0.00 0.00 64 1010.1
20180818015134 20 310 1.6 1.6 0.00 0.00 0.00 63 1010.2
20180818014933 20 327 0.0 3.2 0.00 0.00 0.00 63 1010.2
20180818014731 20 333 0.0 3.2 0.00 0.00 0.00 63 1010.1
20180818014529 20 292 1.6 3.2 0.00 0.00 0.00 63 1010.2
20180818014328 20 347 1.6 3.2 0.00 0.00 0.00 63 1010.2
20180818014126 20 305 1.6 3.2 0.00 0.00 0.00 63 1010.2
20180818013925 20 319 3.2 3.2 0.00 0.00 0.00 63 1010.2
20180818013724 20 315 1.6 3.2 0.00 0.00 0.00 63 1010.3
20180818013521 20 333 1.6 3.2 0.00 0.00 0.00 62 1010.3
20180818013320 20 315 0.0 3.2 0.00 0.00 0.00 62 1010.2
20180818013118 20 305 0.0 3.2 0.00 0.00 0.00 62 1010.2
20180818012917 20 307 1.6 3.2 0.00 0.00 0.00 62 1010.2
20180818012715 20 330 0.0 3.2 0.00 0.00 0.00 62 1010.2
20180818012514 20 315 0.0 3.2 0.00 0.00 0.00 62 1010.2
20180818012312 20 331 0.0 3.2 0.00 0.00 0.00 61 1010.2
20180818012111 20 295 1.6 3.2 0.00 0.00 0.00 61 1010.2
20180818011909 20 315 1.6 3.2 0.00 0.00 0.00 61 1010.1
20180818011708 20 319 3.2 3.2 0.00 0.00 0.00 61 1010.2
20180818011506 20 309 0.0 3.2 0.00 0.00 0.00 61 1010.3
20180818011304 20 327 0.0 3.2 0.00 0.00 0.00 61 1010.2
20180818011103 20 282 0.0 3.2 0.00 0.00 0.00 60 1010.3
20180818010901 20 331 1.6 3.2 0.00 0.00 0.00 60 1010.3
20180818010700 20 348 3.2 3.2 0.00 0.00 0.00 60 1010.3
20180818010458 20 334 1.6 3.2 0.00 0.00 0.00 59 1010.3
20180818010256 20 306 0.0 3.2 0.00 0.00 0.00 59 1010.3
20180818010056 20 316 0.0 0.0 0.00 0.00 0.00 59 1010.3
20180818005853 20 336 0.0 0.0 0.00 0.00 0.00 59 1010.4
20180818005652 20 336 0.0 0.0 0.00 0.00 0.00 59 1010.3
20180818005451 20 336 0.0 0.0 0.00 0.00 0.00 59 1010.3
20180818005249 20 336 0.0 0.0 0.00 0.00 0.00 59 1010.3
20180818005047 21 336 0.0 1.6 0.00 0.00 0.00 58 1010.3
20180818004846 21 336 0.0 1.6 0.00 0.00 0.00 58 1010.4
20180818004644 21 336 0.0 1.6 0.00 0.00 0.00 58 1010.4
20180818004443 21 329 0.0 0.0 0.00 0.00 0.00 58 1010.4
20180818004241 21 329 0.0 0.0 0.00 0.00 0.00 58 1010.4
20180818004040 21 333 0.0 1.6 0.00 0.00 0.00 58 1010.4
20180818003838 20 333 0.0 1.6 0.00 0.00 0.00 57 1010.4
20180818003636 21 333 0.0 1.6 0.00 0.00 0.00 57 1010.4
20180818003435 21 326 0.0 0.0 0.00 0.00 0.00 57 1010.5
20180818003233 21 326 0.0 0.0 0.00 0.00 0.00 57 1010.5
20180818003031 21 326 0.0 0.0 0.00 0.00 0.00 57 1010.5
20180818002830 21 326 0.0 0.0 0.00 0.00 0.00 57 1010.5
20180818002628 21 326 0.0 0.0 0.00 0.00 0.00 57 1010.5
20180818002427 21 326 0.0 0.0 0.00 0.00 0.00 57 1010.6
20180818002225 21 326 0.0 0.0 0.00 0.00 0.00 56 1010.5
20180818002024 21 326 0.0 0.0 0.00 0.00 0.00 56 1010.5
20180818001822 21 326 0.0 0.0 0.00 0.00 0.00 56 1010.6
20180818001621 21 326 0.0 0.0 0.00 0.00 0.00 56 1010.5
20180818001419 21 327 0.0 0.0 0.00 0.00 0.00 56 1010.6
20180818001218 21 327 0.0 0.0 0.00 0.00 0.00 55 1010.6
20180818001016 21 327 0.0 0.0 0.00 0.00 0.00 55 1010.6
20180818000815 21 327 0.0 0.0 0.00 0.00 0.00 55 1010.6
20180818000613 22 327 0.0 0.0 0.00 0.00 0.00 55 1010.6
20180818000411 22 327 0.0 0.0 0.00 0.00 0.00 55 1010.6
20180818000210 22 327 0.0 0.0 0.00 0.00 0.00 55 1010.7
20180818000008 21 327 0.0 3.2 0.00 0.00 0.00 55 1010.6
20180817235807 22 327 0.0 3.2 0.00 0.00 0.00 54 1010.7
20180817235605 22 327 0.0 0.0 0.00 0.00 0.00 54 1010.6
20180817235403 22 333 3.2 0.0 0.00 0.00 0.00 54 1010.6
20180817235202 22 199 0.0 0.0 0.00 0.00 0.00 54 1010.6
20180817235001 22 199 0.0 0.0 0.00 0.00 0.00 54 1010.6
20180817234759 22 199 0.0 0.0 0.00 0.00 0.00 54 1010.6
20180817234557 22 199 0.0 0.0 0.00 0.00 0.00 53 1010.6
20180817234356 22 199 0.0 0.0 0.00 0.00 0.00 53 1010.6
20180817234154 22 199 0.0 0.0 0.00 0.00 0.00 53 1010.6
20180817233953 22 199 0.0 0.0 0.00 0.00 0.00 53 1010.6
20180817233751 22 199 0.0 0.0 0.00 0.00 0.00 53 1010.6
20180817233550 22 199 0.0 0.0 0.00 0.00 0.00 53 1010.6
20180817233348 22 199 0.0 0.0 0.00 0.00 0.00 53 1010.6
20180817233147 22 199 0.0 0.0 0.00 0.00 0.00 53 1010.6
20180817232945 22 199 0.0 0.0 0.00 0.00 0.00 53 1010.6
20180817232743 22 199 0.0 0.0 0.00 0.00 0.00 53 1010.6
20180817232542 22 199 0.0 0.0 0.00 0.00 0.00 52 1010.6
20180817232340 22 199 0.0 0.0 0.00 0.00 0.00 52 1010.6
20180817232138 22 199 0.0 0.0 0.00 0.00 0.00 52 1010.6
20180817231937 22 199 0.0 0.0 0.00 0.00 0.00 52 1010.5
20180817231735 23 199 0.0 0.0 0.00 0.00 0.00 52 1010.6
20180817231534 23 199 0.0 0.0 0.00 0.00 0.00 52 1010.6
20180817231332 23 199 0.0 0.0 0.00 0.00 0.00 52 1010.6
20180817231131 23 199 0.0 0.0 0.00 0.00 0.00 52 1010.6
20180817230929 23 323 0.0 0.0 0.00 0.00 0.00 52 1010.6
20180817230728 23 323 0.0 0.0 0.00 0.00 0.00 52 1010.6
20180817230524 23 323 0.0 0.0 0.00 0.00 0.00 51 1010.6
20180817230323 23 323 0.0 0.0 0.00 0.00 0.00 51 1010.6
20180817230121 23 323 0.0 0.0 0.00 0.00 0.00 51 1010.7
20180817225920 23 323 0.0 0.0 0.00 0.00 0.00 51 1010.7
20180817225718 23 323 0.0 0.0 0.00 0.00 0.00 52 1010.6
20180817225516 23 323 0.0 0.0 0.00 0.00 0.00 52 1010.6
20180817225315 23 323 0.0 0.0 0.00 0.00 0.00 51 1010.6
20180817225114 23 323 0.0 0.0 0.00 0.00 0.00 51 1010.7
20180817224911 23 323 0.0 0.0 0.00 0.00 0.00 51 1010.6
20180817224710 23 323 0.0 0.0 0.00 0.00 0.00 51 1010.7
20180817224508 23 323 0.0 0.0 0.00 0.00 0.00 51 1010.7
20180817224307 23 323 0.0 0.0 0.00 0.00 0.00 51 1010.6
20180817224105 23 323 0.0 0.0 0.00 0.00 0.00 51 1010.6
20180817223904 23 323 0.0 0.0 0.00 0.00 0.00 51 1010.6
20180817223702 23 323 0.0 0.0 0.00 0.00 0.00 51 1010.7
20180817223501 23 323 0.0 1.6 0.00 0.00 0.00 51 1010.6
20180817223259 23 323 0.0 1.6 0.00 0.00 0.00 51 1010.7
20180817223058 23 5 0.0 1.6 0.00 0.00 0.00 51 1010.6
20180817222856 23 5 0.0 1.6 0.00 0.00 0.00 51 1010.7
20180817222655 23 307 0.0 1.6 0.00 0.00 0.00 51 1010.6
20180817222453 23 331 0.0 4.8 0.00 0.00 0.00 51 1010.7
20180817222251 23 288 0.0 4.8 0.00 0.00 0.00 51 1010.6
20180817222050 23 21 0.0 6.4 0.00 0.00 0.00 51 1010.6
20180817221848 23 327 0.0 6.4 0.00 0.00 0.00 51 1010.6
20180817221647 23 326 1.6 6.4 0.00 0.00 0.00 51 1010.6
20180817221445 23 310 1.6 4.8 0.00 0.00 0.00 51 1010.6
20180817221243 23 274 0.0 4.8 0.00 0.00 0.00 51 1010.7
20180817221042 23 310 0.0 6.4 0.00 0.00 0.00 51 1010.6
20180817220840 23 316 3.2 6.4 0.00 0.00 0.00 51 1010.6
20180817220640 23 333 1.6 6.4 0.00 0.00 0.00 51 1010.6
20180817220437 23 129 0.0 6.4 0.00 0.00 0.00 51 1010.6
20180817220236 23 317 3.2 6.4 0.00 0.00 0.00 51 1010.6
20180817220034 23 336 1.6 8.0 0.00 0.00 0.00 51 1010.6
20180817215833 22 324 3.2 8.0 0.00 0.00 0.00 51 1010.6
20180817215631 23 320 6.4 8.0 0.00 0.00 0.00 51 1010.6
20180817215430 23 336 1.6 8.0 0.00 0.00 0.00 51 1010.5
20180817215228 23 322 4.8 8.0 0.00 0.00 0.00 51 1010.5
20180817215027 23 333 4.8 8.0 0.00 0.00 0.00 51 1010.5
20180817214825 23 324 4.8 8.0 0.00 0.00 0.00 51 1010.5
20180817214623 23 322 6.4 8.0 0.00 0.00 0.00 51 1010.5
20180817214422 23 338 0.0 8.0 0.00 0.00 0.00 51 1010.5
20180817214220 23 299 3.2 8.0 0.00 0.00 0.00 51 1010.5
20180817214018 23 317 3.2 8.0 0.00 0.00 0.00 51 1010.5
20180817213817 23 317 4.8 8.0 0.00 0.00 0.00 51 1010.5
20180817213615 23 326 6.4 8.0 0.00 0.00 0.00 51 1010.5
20180817213414 23 310 1.6 8.0 0.00 0.00 0.00 51 1010.5
20180817213212 23 217 1.6 8.0 0.00 0.00 0.00 51 1010.5
20180817213011 23 322 6.4 8.0 0.00 0.00 0.00 51 1010.5
20180817212809 23 313 0.0 8.0 0.00 0.00 0.00 51 1010.5
20180817212608 23 291 1.6 6.4 0.00 0.00 0.00 51 1010.4
20180817212406 23 285 4.8 6.4 0.00 0.00 0.00 50 1010.5
20180817212205 23 312 4.8 6.4 0.00 0.00 0.00 50 1010.5
20180817212003 23 322 4.8 6.4 0.00 0.00 0.00 50 1010.4
20180817211802 23 327 3.2 6.4 0.00 0.00 0.00 50 1010.5
20180817211600 23 286 1.6 9.7 0.00 0.00 0.00 50 1010.5
20180817211358 23 4 3.2 9.7 0.00 0.00 0.00 50 1010.4
20180817211157 23 327 4.8 9.7 0.00 0.00 0.00 50 1010.4
20180817210955 23 337 6.4 6.4 0.00 0.00 0.00 50 1010.4
20180817210753 23 322 1.6 6.4 0.00 0.00 0.00 50 1010.4
20180817210553 23 316 3.2 9.7 0.00 0.00 0.00 50 1010.4
20180817210351 23 309 1.6 9.7 0.00 0.00 0.00 50 1010.4
20180817210149 23 54 3.2 9.7 0.00 0.00 0.00 50 1010.4
20180817205947 23 340 4.8 8.0 0.00 0.00 0.00 50 1010.4
20180817205745 23 313 6.4 8.0 0.00 0.00 0.00 49 1010.4
20180817205544 23 324 4.8 11.3 0.00 0.00 0.00 49 1010.4
20180817205340 23 341 4.8 11.3 0.00 0.00 0.00 49 1010.4
20180817205138 23 275 4.8 11.3 0.00 0.00 0.00 49 1010.5
20180817204937 23 303 4.8 11.3 0.00 0.00 0.00 49 1010.4
20180817204735 23 319 6.4 11.3 0.00 0.00 0.00 49 1010.4
20180817204534 23 315 8.0 11.3 0.00 0.00 0.00 49 1010.4
20180817204332 23 348 1.6 11.3 0.00 0.00 0.00 49 1010.4
20180817204130 23 291 4.8 9.7 0.00 0.00 0.00 49 1010.3
20180817203929 23 317 3.2 9.7 0.00 0.00 0.00 49 1010.3
20180817203727 24 315 4.8 9.7 0.00 0.00 0.00 49 1010.3
20180817203526 24 313 3.2 9.7 0.00 0.00 0.00 49 1010.2
20180817203324 23 322 4.8 9.7 0.00 0.00 0.00 49 1010.2
20180817203122 24 21 0.0 9.7 0.00 0.00 0.00 49 1010.2
20180817202921 23 305 4.8 9.7 0.00 0.00 0.00 49 1010.2
20180817202720 24 315 3.2 9.7 0.00 0.00 0.00 48 1010.2
20180817202518 24 348 1.6 9.7 0.00 0.00 0.00 48 1010.2
20180817202316 24 344 4.8 9.7 0.00 0.00 0.00 48 1010.2
20180817202115 24 351 3.2 12.9 0.00 0.00 0.00 48 1010.1
20180817201913 24 347 3.2 12.9 0.00 0.00 0.00 48 1010.1
20180817201711 24 324 4.8 12.9 0.00 0.00 0.00 48 1010.1
20180817201509 23 316 6.4 14.5 0.00 0.00 0.00 48 1010.2
20180817201308 24 313 4.8 14.5 0.00 0.00 0.00 48 1010.1
20180817201106 24 309 11.3 14.5 0.00 0.00 0.00 48 1010.1
20180817200905 24 8 8.0 14.5 0.00 0.00 0.00 48 1010.0
20180817200703 24 329 11.3 14.5 0.00 0.00 0.00 48 1010.1
20180817200500 23 25 4.8 16.1 0.00 0.00 0.00 48 1010.0
20180817200259 23 324 4.8 16.1 0.00 0.00 0.00 48 1010.1
20180817200057 24 326 8.0 12.9 0.00 0.00 0.00 47 1010.0
20180817195854 24 355 3.2 12.9 0.00 0.00 0.00 47 1010.0
20180817195653 24 333 8.0 12.9 0.00 0.00 0.00 47 1010.0
20180817195450 24 299 8.0 9.7 0.00 0.00 0.00 47 1010.0
20180817195249 25 348 3.2 9.7 0.00 0.00 0.00 47 1010.0
20180817195047 25 5 3.2 11.3 0.00 0.00 0.00 47 1009.9
20180817194846 25 319 4.8 11.3 0.00 0.00 0.00 47 1009.9
20180817194644 25 351 4.8 11.3 0.00 0.00 0.00 47 1009.8
20180817194443 25 327 6.4 9.7 0.00 0.00 0.00 46 1009.9
20180817194241 25 320 4.8 9.7 0.00 0.00 0.00 46 1009.8
20180817194040 25 327 1.6 12.9 0.00 0.00 0.00 46 1009.8
20180817193838 25 14 1.6 12.9 0.00 0.00 0.00 46 1009.8
20180817193637 25 316 6.4 12.9 0.00 0.00 0.00 46 1009.8
20180817193435 25 307 4.8 11.3 0.00 0.00 0.00 45 1009.7
20180817193233 25 1 3.2 11.3 0.00 0.00 0.00 45 1009.7
20180817193032 25 307 4.8 11.3 0.00 0.00 0.00 45 1009.7
20180817192830 26 4 4.8 11.3 0.00 0.00 0.00 45 1009.7
20180817192629 26 324 6.4 11.3 0.00 0.00 0.00 44 1009.7
20180817192427 26 329 3.2 11.3 0.00 0.00 0.00 44 1009.7
20180817192225 26 341 3.2 11.3 0.00 0.00 0.00 44 1009.7
20180817192024 25 298 3.2 8.0 0.00 0.00 0.00 44 1009.7
20180817191822 26 333 6.4 8.0 0.00 0.00 0.00 43 1009.7
20180817191621 26 306 3.2 16.1 0.00 0.00 0.00 43 1009.7
20180817191419 26 316 4.8 16.1 0.00 0.00 0.00 43 1009.7
20180817191218 26 351 3.2 16.1 0.00 0.00 0.00 43 1009.7
20180817191017 26 326 9.7 14.5 0.00 0.00 0.00 42 1009.7
20180817190815 26 358 4.8 14.5 0.00 0.00 0.00 42 1009.7
20180817190613 26 327 8.0 8.0 0.00 0.00 0.00 42 1009.7
20180817190412 27 334 6.4 8.0 0.00 0.00 0.00 41 1009.6
20180817190210 27 338 6.4 8.0 0.00 0.00 0.00 41 1009.6
20180817190008 27 330 6.4 11.3 0.00 0.00 0.00 41 1009.6
20180817185807 27 317 3.2 11.3 0.00 0.00 0.00 40 1009.5
20180817185605 27 322 3.2 11.3 0.00 0.00 0.00 40 1009.5
20180817185404 27 347 4.8 11.3 0.00 0.00 0.00 41 1009.5
20180817185202 27 241 3.2 11.3 0.00 0.00 0.00 41 1009.5
20180817185000 27 312 8.0 11.3 0.00 0.00 0.00 41 1009.5
20180817184759 27 0 4.8 11.3 0.00 0.00 0.00 40 1009.5
20180817184557 27 28 3.2 12.9 0.00 0.00 0.00 40 1009.5
20180817184356 27 12 0.0 12.9 0.00 0.00 0.00 40 1009.5
20180817184154 27 23 0.0 12.9 0.00 0.00 0.00 39 1009.4
20180817183953 27 358 9.7 11.3 0.00 0.00 0.00 39 1009.4
20180817183751 27 315 3.2 11.3 0.00 0.00 0.00 39 1009.4
20180817183550 27 288 6.4 12.9 0.00 0.00 0.00 39 1009.4
20180817183348 27 313 4.8 12.9 0.00 0.00 0.00 39 1009.4
20180817183147 27 14 8.0 12.9 0.00 0.00 0.00 39 1009.4
20180817182945 28 322 4.8 9.7 0.00 0.00 0.00 39 1009.4
20180817182744 28 338 3.2 9.7 0.00 0.00 0.00 38 1009.4
20180817182542 28 333 1.6 9.7 0.00 0.00 0.00 38 1009.4
20180817182340 28 286 4.8 9.7 0.00 0.00 0.00 37 1009.3
20180817182139 28 11 4.8 9.7 0.00 0.00 0.00 37 1009.4
20180817181937 28 329 3.2 14.5 0.00 0.00 0.00 37 1009.4
20180817181736 28 47 1.6 14.5 0.00 0.00 0.00 36 1009.4
20180817181534 28 310 0.0 11.3 0.00 0.00 0.00 36 1009.4
20180817181332 28 313 1.6 11.3 0.00 0.00 0.00 36 1009.4
20180817181131 28 338 3.2 9.7 0.00 0.00 0.00 35 1009.4
20180817180929 28 338 0.0 9.7 0.00 0.00 0.00 36 1009.4
20180817180728 28 300 1.6 9.7 0.00 0.00 0.00 37 1009.4
20180817180526 28 355 1.6 14.5 0.00 0.00 0.00 36 1009.4
20180817180325 28 327 0.0 14.5 0.00 0.00 0.00 37 1009.4
20180817180123 28 324 3.2 16.1 0.00 0.00 0.00 37 1009.3
20180817175922 28 306 6.4 16.1 0.00 0.00 0.00 37 1009.3
20180817175720 28 343 3.2 16.1 0.00 0.00 0.00 37 1009.4
20180817175519 28 326 8.0 12.9 0.00 0.00 0.00 35 1009.4
20180817175317 29 74 1.6 12.9 0.00 0.00 0.00 36 1009.4
20180817175115 29 331 8.0 8.0 0.00 0.00 0.00 35 1009.4
20180817174914 29 319 11.3 8.0 0.00 0.00 0.00 35 1009.3
20180817174712 29 326 4.8 8.0 0.00 0.00 0.00 35 1009.4
20180817174511 29 302 6.4 14.5 0.00 0.00 0.00 35 1009.4
20180817174309 29 320 3.2 14.5 0.00 0.00 0.00 35 1009.4
20180817174107 28 47 1.6 14.5 0.00 0.00 0.00 36 1009.4
20180817173906 28 336 4.8 14.5 0.00 0.00 0.00 36 1009.4
20180817173704 28 313 3.2 14.5 0.00 0.00 0.00 36 1009.4
20180817173503 28 63 6.4 12.9 0.00 0.00 0.00 35 1009.4
20180817173301 29 330 11.3 12.9 0.00 0.00 0.00 34 1009.4
20180817173100 29 347 6.4 9.7 0.00 0.00 0.00 34 1009.4
20180817172858 30 2 8.0 9.7 0.00 0.00 0.00 33 1009.4
20180817172657 30 300 1.6 9.7 0.00 0.00 0.00 33 1009.5
20180817172455 30 196 1.6 8.0 0.00 0.00 0.00 33 1009.4
20180817172254 30 331 1.6 8.0 0.00 0.00 0.00 33 1009.5
20180817172052 30 337 3.2 14.5 0.00 0.00 0.00 33 1009.5
20180817171851 30 156 0.0 14.5 0.00 0.00 0.00 34 1009.5
20180817171649 30 333 3.2 14.5 0.00 0.00 0.00 33 1009.5
20180817171447 30 317 9.7 16.1 0.00 0.00 0.00 34 1009.5
20180817171246 29 357 3.2 16.1 0.00 0.00 0.00 34 1009.4
20180817171044 30 262 4.8 14.5 0.00 0.00 0.00 33 1009.4
20180817170843 30 320 11.3 14.5 0.00 0.00 0.00 30 1009.4
20180817170641 30 8 6.4 14.5 0.00 0.00 0.00 32 1009.5
20180817170439 30 337 1.6 9.7 0.00 0.00 0.00 32 1009.4
20180817170238 30 326 12.9 9.7 0.00 0.00 0.00 31 1009.5
20180817170036 30 330 3.2 11.3 0.00 0.00 0.00 32 1009.4
20180817165835 30 324 3.2 11.3 0.00 0.00 0.00 32 1009.4
20180817165633 30 348 1.6 11.3 0.00 0.00 0.00 32 1009.4
20180817165432 30 316 8.0 17.7 0.00 0.00 0.00 33 1009.5
20180817165230 30 352 4.8 17.7 0.00 0.00 0.00 32 1009.5
20180817165029 31 348 11.3 9.7 0.00 0.00 0.00 31 1009.4
20180817164827 32 324 8.0 9.7 0.00 0.00 0.00 30 1009.5
20180817164626 32 322 6.4 11.3 0.00 0.00 0.00 28 1009.4
20180817164424 32 312 0.0 11.3 0.00 0.00 0.00 28 1009.4
20180817164223 32 358 4.8 11.3 0.00 0.00 0.00 27 1009.4
20180817164021 32 345 8.0 9.7 0.00 0.00 0.00 28 1009.5
20180817163819 32 229 0.0 9.7 0.00 0.00 0.00 29 1009.5
20180817163618 31 341 0.0 12.9 0.00 0.00 0.00 30 1009.5
20180817163416 31 299 8.0 12.9 0.00 0.00 0.00 30 1009.5
20180817163214 31 251 0.0 12.9 0.00 0.00 0.00 30 1009.5
20180817163013 32 270 6.4 11.3 0.00 0.00 0.00 29 1009.5
20180817162811 31 261 4.8 11.3 0.00 0.00 0.00 30 1009.5
20180817162610 32 296 4.8 8.0 0.00 0.00 0.00 30 1009.5
20180817162408 32 257 4.8 8.0 0.00 0.00 0.00 29 1009.5
20180817162207 32 291 6.4 8.0 0.00 0.00 0.00 30 1009.6
20180817162005 32 274 3.2 11.3 0.00 0.00 0.00 29 1009.6
20180817161804 32 241 6.4 11.3 0.00 0.00 0.00 29 1009.6
20180817161602 31 271 3.2 17.7 0.00 0.00 0.00 30 1009.6
20180817161401 32 210 1.6 17.7 0.00 0.00 0.00 30 1009.6
20180817161159 32 262 6.4 17.7 0.00 0.00 0.00 29 1009.6
20180817160958 32 267 3.2 12.9 0.00 0.00 0.00 29 1009.6
20180817160756 32 205 9.7 12.9 0.00 0.00 0.00 28 1009.6
20180817160554 32 232 6.4 11.3 0.00 0.00 0.00 27 1009.6
20180817160353 32 251 6.4 11.3 0.00 0.00 0.00 26 1009.6
20180817160151 32 272 1.6 11.3 0.00 0.00 0.00 26 1009.6
20180817155949 32 274 3.2 9.7 0.00 0.00 0.00 26 1009.6
20180817155748 32 261 4.8 9.7 0.00 0.00 0.00 26 1009.6
20180817155546 32 288 0.0 9.7 0.00 0.00 0.00 25 1009.6
20180817155345 32 270 6.4 9.7 0.00 0.00 0.00 25 1009.7
20180817155143 33 285 3.2 9.7 0.00 0.00 0.00 25 1009.7
20180817154942 33 240 1.6 14.5 0.00 0.00 0.00 24 1009.7
20180817154740 33 282 4.8 14.5 0.00 0.00 0.00 24 1009.8
20180817154539 33 250 3.2 11.3 0.00 0.00 0.00 24 1009.8
20180817154337 33 278 3.2 11.3 0.00 0.00 0.00 24 1009.7
20180817154136 33 257 4.8 11.3 0.00 0.00 0.00 24 1009.8
20180817153935 33 255 3.2 9.7 0.00 0.00 0.00 24 1009.8
20180817153733 33 227 1.6 9.7 0.00 0.00 0.00 24 1009.8
20180817153531 33 250 6.4 9.7 0.00 0.00 0.00 24 1009.9
20180817153329 32 292 0.0 9.7 0.00 0.00 0.00 24 1009.9
20180817153128 33 272 1.6 11.3 0.00 0.00 0.00 25 1009.9
20180817152927 32 255 3.2 11.3 0.00 0.00 0.00 26 1009.9
20180817152725 32 241 3.2 11.3 0.00 0.00 0.00 25 1010.0
20180817152523 32 316 1.6 14.5 0.00 0.00 0.00 25 1010.0
20180817152321 32 320 8.0 14.5 0.00 0.00 0.00 25 1010.2
20180817152120 32 241 3.2 8.0 0.00 0.00 0.00 24 1010.1
20180817151918 33 305 12.9 8.0 0.00 0.00 0.00 23 1010.1
20180817151717 33 244 4.8 8.0 0.00 0.00 0.00 25 1010.2
20180817151515 32 282 0.0 9.7 0.00 0.00 0.00 25 1010.1
20180817151314 32 307 3.2 9.7 0.00 0.00 0.00 24 1010.2
20180817151112 32 246 6.4 11.3 0.00 0.00 0.00 25 1010.3
20180817150911 32 264 3.2 11.3 0.00 0.00 0.00 25 1010.3
20180817150709 32 322 1.6 11.3 0.00 0.00 0.00 25 1010.3
20180817150508 32 254 1.6 8.0 0.00 0.00 0.00 24 1010.2
20180817150306 32 241 4.8 8.0 0.00 0.00 0.00 26 1010.3
20180817150104 32 255 4.8 11.3 0.00 0.00 0.00 26 1010.3
20180817145903 32 246 3.2 11.3 0.00 0.00 0.00 25 1010.3
20180817145701 32 312 4.8 11.3 0.00 0.00 0.00 25 1010.4
20180817145258 32 284 8.0 11.3 0.00 0.00 0.00 26 1010.5
20180817145057 32 282 6.4 12.9 0.00 0.00 0.00 25 1010.5
20180817144855 32 310 0.0 12.9 0.00 0.00 0.00 24 1010.5
20180817144653 32 289 4.8 12.9 0.00 0.00 0.00 25 1010.6
20180817144452 32 303 6.4 11.3 0.00 0.00 0.00 24 1010.6
20180817144049 31 292 3.2 11.3 0.00 0.00 0.00 26 1010.6
20180817143847 31 267 3.2 11.3 0.00 0.00 0.00 28 1010.7
20180817143646 31 267 4.8 11.3 0.00 0.00 0.00 28 1010.8
20180817143444 31 312 3.2 14.5 0.00 0.00 0.00 28 1010.8
20180817143243 31 254 8.0 14.5 0.00 0.00 0.00 28 1010.8
20180817143041 31 343 1.6 9.7 0.00 0.00 0.00 28 1010.8
20180817142840 31 310 12.9 9.7 0.00 0.00 0.00 28 1010.9
20180817142638 31 293 3.2 9.7 0.00 0.00 0.00 28 1010.9
20180817142436 31 253 3.2 12.9 0.00 0.00 0.00 28 1010.9
20180817142235 31 262 0.0 12.9 0.00 0.00 0.00 27 1011.0
20180817142033 31 243 1.6 12.9 0.00 0.00 0.00 28 1011.0
20180817141831 31 279 9.7 12.9 0.00 0.00 0.00 28 1011.0
20180817141630 31 338 4.8 12.9 0.00 0.00 0.00 26 1011.1
20180817141428 31 285 8.0 12.9 0.00 0.00 0.00 26 1011.1
20180817141227 31 298 6.4 12.9 0.00 0.00 0.00 27 1011.1
20180817141025 31 286 6.4 14.5 0.00 0.00 0.00 27 1011.1
20180817140824 31 295 6.4 14.5 0.00 0.00 0.00 28 1011.2
20180817140622 32 338 6.4 12.9 0.00 0.00 0.00 28 1011.2
20180817140421 31 291 9.7 12.9 0.00 0.00 0.00 27 1011.3
20180817140219 31 275 11.3 12.9 0.00 0.00 0.00 27 1011.3
20180817140018 31 247 1.6 11.3 0.00 0.00 0.00 28 1011.3
20180817135816 31 303 4.8 11.3 0.00 0.00 0.00 26 1011.2
20180817135615 31 292 1.6 6.4 0.00 0.00 0.00 27 1011.3
20180817135413 32 298 3.2 6.4 0.00 0.00 0.00 28 1011.3
20180817135211 31 298 3.2 6.4 0.00 0.00 0.00 28 1011.4
20180817135010 31 281 4.8 9.7 0.00 0.00 0.00 29 1011.4
20180817134808 31 274 0.0 9.7 0.00 0.00 0.00 29 1011.4
20180817134607 31 305 4.8 9.7 0.00 0.00 0.00 28 1011.4
20180817134405 31 279 3.2 9.7 0.00 0.00 0.00 30 1011.4
20180817134203 31 174 0.0 9.7 0.00 0.00 0.00 29 1011.4
20180817134002 31 261 4.8 9.7 0.00 0.00 0.00 30 1011.5
20180817133800 31 268 6.4 9.7 0.00 0.00 0.00 29 1011.5
20180817133559 31 250 4.8 8.0 0.00 0.00 0.00 30 1011.5
20180817133357 31 271 0.0 8.0 0.00 0.00 0.00 30 1011.5
20180817133156 31 225 0.0 8.0 0.00 0.00 0.00 31 1011.6
20180817132954 30 163 3.2 11.3 0.00 0.00 0.00 32 1011.6
20180817132753 31 1 3.2 11.3 0.00 0.00 0.00 32 1011.6
20180817132551 30 237 1.6 11.3 0.00 0.00 0.00 32 1011.7
20180817132350 30 261 3.2 11.3 0.00 0.00 0.00 33 1011.7
20180817132148 30 281 0.0 11.3 0.00 0.00 0.00 33 1011.8
20180817131947 30 277 3.2 9.7 0.00 0.00 0.00 33 1011.8
20180817131745 30 278 3.2 9.7 0.00 0.00 0.00 34 1011.8
20180817131543 30 172 0.0 12.9 0.00 0.00 0.00 34 1011.8
20180817131342 30 233 1.6 12.9 0.00 0.00 0.00 34 1011.8
20180817131140 30 306 3.2 12.9 0.00 0.00 0.00 33 1011.8
20180817130938 30 323 4.8 8.0 0.00 0.00 0.00 34 1011.9
20180817130737 30 189 1.6 8.0 0.00 0.00 0.00 34 1011.9
20180817130536 30 265 1.6 8.0 0.00 0.00 0.00 35 1012.0
20180817130334 30 251 1.6 8.0 0.00 0.00 0.00 35 1012.0
20180817130132 30 286 3.2 11.3 0.00 0.00 0.00 35 1012.0
20180817125931 29 210 4.8 11.3 0.00 0.00 0.00 35 1012.1
20180817125729 29 226 3.2 11.3 0.00 0.00 0.00 36 1012.0
20180817125528 28 289 0.0 6.4 0.00 0.00 0.00 37 1012.1
20180817125326 28 316 6.4 6.4 0.00 0.00 0.00 37 1012.1
20180817125125 28 267 0.0 9.7 0.00 0.00 0.00 38 1012.1
20180817124923 28 306 1.6 9.7 0.00 0.00 0.00 39 1012.1
20180817124722 28 350 3.2 9.7 0.00 0.00 0.00 39 1012.0
20180817124520 28 295 4.8 14.5 0.00 0.00 0.00 39 1012.1
20180817124318 28 299 8.0 14.5 0.00 0.00 0.00 40 1012.1
20180817124117 27 303 4.8 8.0 0.00 0.00 0.00 40 1012.1
20180817123915 27 302 4.8 8.0 0.00 0.00 0.00 39 1012.1
20180817123713 28 293 1.6 8.0 0.00 0.00 0.00 41 1012.1
20180817123512 27 226 1.6 11.3 0.00 0.00 0.00 40 1012.2
20180817123310 27 285 3.2 11.3 0.00 0.00 0.00 40 1012.2
20180817123109 27 282 3.2 12.9 0.00 0.00 0.00 41 1012.2
20180817122705 27 291 11.3 12.9 0.00 0.00 0.00 40 1012.3
20180817122503 27 260 3.2 14.5 0.00 0.00 0.00 41 1012.3
20180817122302 27 326 8.0 14.5 0.00 0.00 0.00 41 1012.3
20180817122100 27 303 4.8 9.7 0.00 0.00 0.00 43 1012.3
20180817121859 27 251 0.0 9.7 0.00 0.00 0.00 43 1012.3
20180817121657 26 281 4.8 9.7 0.00 0.00 0.00 45 1012.4
20180817121456 26 292 4.8 14.5 0.00 0.00 0.00 44 1012.4
20180817121254 26 300 1.6 14.5 0.00 0.00 0.00 43 1012.4
20180817121052 26 317 8.0 6.4 0.00 0.00 0.00 42 1012.4
20180817120851 27 310 3.2 6.4 0.00 0.00 0.00 41 1012.4
20180817120649 27 315 9.7 6.4 0.00 0.00 0.00 41 1012.4
20180817120448 27 289 1.6 12.9 0.00 0.00 0.00 42 1012.4
20180817120246 27 154 0.0 12.9 0.00 0.00 0.00 42 1012.4
20180817120044 27 341 6.4 16.1 0.00 0.00 0.00 41 1012.5
20180817115843 27 331 4.8 16.1 0.00 0.00 0.00 42 1012.5
20180817115641 27 309 9.7 16.1 0.00 0.00 0.00 42 1012.5
20180817115440 27 326 3.2 11.3 0.00 0.00 0.00 41 1012.5
20180817115238 27 336 6.4 11.3 0.00 0.00 0.00 40 1012.6
20180817115037 27 298 6.4 9.7 0.00 0.00 0.00 41 1012.5
20180817114835 27 324 3.2 9.7 0.00 0.00 0.00 40 1012.6
20180817114634 27 306 4.8 9.7 0.00 0.00 0.00 40 1012.6
20180817114432 27 343 0.0 9.7 0.00 0.00 0.00 40 1012.6
20180817114231 27 309 4.8 9.7 0.00 0.00 0.00 40 1012.6
20180817114029 27 300 4.8 8.0 0.00 0.00 0.00 40 1012.7
20180817113828 27 299 3.2 8.0 0.00 0.00 0.00 39 1012.7
20180817113626 27 229 0.0 3.2 0.00 0.00 0.00 38 1012.7
20180817113424 27 293 1.6 3.2 0.00 0.00 0.00 39 1012.8
20180817113223 27 345 1.6 3.2 0.00 0.00 0.00 42 1012.8
20180817113021 27 281 0.0 6.4 0.00 0.00 0.00 42 1012.8
20180817112819 26 277 0.0 6.4 0.00 0.00 0.00 42 1012.8
20180817112618 26 298 0.0 6.4 0.00 0.00 0.00 43 1012.8
20180817112416 26 21 0.0 6.4 0.00 0.00 0.00 43 1012.9
20180817112215 26 324 1.6 6.4 0.00 0.00 0.00 43 1012.8
20180817112013 26 336 3.2 4.8 0.00 0.00 0.00 44 1012.8
20180817111812 26 56 4.8 4.8 0.00 0.00 0.00 45 1012.9
20180817111610 25 316 0.0 11.3 0.00 0.00 0.00 46 1012.9
20180817111409 25 312 0.0 11.3 0.00 0.00 0.00 47 1012.9
20180817111207 25 281 0.0 11.3 0.00 0.00 0.00 49 1012.9
20180817111006 25 317 8.0 11.3 0.00 0.00 0.00 49 1012.9
20180817110804 25 305 6.4 11.3 0.00 0.00 0.00 49 1012.9
20180817110603 24 348 6.4 9.7 0.00 0.00 0.00 50 1012.9
20180817110401 24 358 4.8 9.7 0.00 0.00 0.00 51 1013.0
20180817110159 25 357 3.2 9.7 0.00 0.00 0.00 48 1013.0
20180817105958 25 358 6.4 9.7 0.00 0.00 0.00 48 1013.0
20180817105757 25 329 1.6 9.7 0.00 0.00 0.00 50 1013.0
20180817105555 25 306 0.0 8.0 0.00 0.00 0.00 49 1013.1
20180817105353 25 358 6.4 8.0 0.00 0.00 0.00 49 1013.0
20180817105151 25 82 3.2 8.0 0.00 0.00 0.00 49 1013.1
20180817104950 24 341 0.0 8.0 0.00 0.00 0.00 50 1013.1
20180817104748 25 67 4.8 8.0 0.00 0.00 0.00 49 1013.1
20180817104547 25 344 0.0 8.0 0.00 0.00 0.00 50 1013.1
20180817104345 24 305 0.0 8.0 0.00 0.00 0.00 51 1013.1
20180817104144 24 316 1.6 8.0 0.00 0.00 0.00 50 1013.0
20180817103942 24 341 1.6 6.4 0.00 0.00 0.00 51 1013.0
20180817103741 24 320 6.4 6.4 0.00 0.00 0.00 51 1012.9
20180817103539 25 299 1.6 6.4 0.00 0.00 0.00 50 1013.0
20180817103338 24 298 0.0 6.4 0.00 0.00 0.00 51 1013.0
20180817103136 24 286 0.0 6.4 0.00 0.00 0.00 52 1012.9
20180817102935 23 67 0.0 4.8 0.00 0.00 0.00 52 1013.0
20180817102733 24 94 1.6 4.8 0.00 0.00 0.00 52 1013.0
20180817102531 23 285 0.0 6.4 0.00 0.00 0.00 53 1013.0
20180817102330 23 309 0.0 6.4 0.00 0.00 0.00 54 1013.1
20180817102128 23 310 0.0 9.7 0.00 0.00 0.00 55 1013.1
20180817101926 23 237 0.0 9.7 0.00 0.00 0.00 55 1013.0
20180817101725 23 288 0.0 9.7 0.00 0.00 0.00 54 1013.0
20180817101523 23 288 1.6 3.2 0.00 0.00 0.00 54 1013.1
20180817101322 23 323 0.0 3.2 0.00 0.00 0.00 55 1013.0
20180817101120 23 126 0.0 8.0 0.00 0.00 0.00 57 1013.1
20180817100919 23 291 0.0 8.0 0.00 0.00 0.00 59 1013.0
20180817100717 22 291 0.0 8.0 0.00 0.00 0.00 59 1013.0
20180817100516 22 316 3.2 11.3 0.00 0.00 0.00 58 1013.0
20180817100314 22 323 0.0 11.3 0.00 0.00 0.00 59 1013.1
20180817100113 22 358 4.8 9.7 0.00 0.00 0.00 59 1013.1
20180817095911 22 331 1.6 9.7 0.00 0.00 0.00 59 1013.1
20180817095710 22 340 4.8 9.7 0.00 0.00 0.00 58 1013.0
20180817095508 22 282 3.2 8.0 0.00 0.00 0.00 59 1013.1
20180817095306 22 300 1.6 8.0 0.00 0.00 0.00 60 1013.1
20180817095105 22 309 0.0 8.0 0.00 0.00 0.00 60 1013.0
20180817094903 21 306 1.6 8.0 0.00 0.00 0.00 60 1013.1
20180817094701 21 14 0.0 8.0 0.00 0.00 0.00 62 1013.1
20180817094500 21 14 0.0 11.3 0.00 0.00 0.00 62 1013.0
20180817094258 21 312 1.6 11.3 0.00 0.00 0.00 63 1013.0
20180817094057 21 63 4.8 9.7 0.00 0.00 0.00 64 1013.1
20180817093855 21 320 4.8 9.7 0.00 0.00 0.00 63 1013.1
20180817093654 21 68 3.2 9.7 0.00 0.00 0.00 64 1013.1
20180817093452 21 310 4.8 9.7 0.00 0.00 0.00 63 1013.1
20180817093251 21 340 0.0 9.7 0.00 0.00 0.00 64 1013.1
20180817093049 21 319 4.8 8.0 0.00 0.00 0.00 63 1013.1
20180817092848 21 215 0.0 8.0 0.00 0.00 0.00 64 1013.1
20180817092646 21 23 3.2 8.0 0.00 0.00 0.00 63 1013.1
20180817092445 21 320 0.0 14.5 0.00 0.00 0.00 63 1013.1
20180817092243 21 306 1.6 14.5 0.00 0.00 0.00 64 1013.1
20180817092041 21 358 1.6 8.0 0.00 0.00 0.00 65 1013.0
20180817091840 20 265 0.0 8.0 0.00 0.00 0.00 66 1013.1
20180817091638 21 278 1.6 8.0 0.00 0.00 0.00 65 1013.1
20180817091437 20 344 4.8 8.0 0.00 0.00 0.00 65 1013.1
20180817091235 20 63 0.0 8.0 0.00 0.00 0.00 67 1013.1
20180817091033 20 63 0.0 6.4 0.00 0.00 0.00 67 1013.2
20180817090832 20 316 1.6 6.4 0.00 0.00 0.00 67 1013.1
20180817090630 20 118 0.0 6.4 0.00 0.00 0.00 68 1013.1
20180817090429 20 338 3.2 6.4 0.00 0.00 0.00 68 1013.1
20180817090227 20 91 0.0 6.4 0.00 0.00 0.00 69 1013.1
20180817090026 20 348 3.2 9.7 0.00 0.00 0.00 70 1013.1
20180817085824 20 324 4.8 9.7 0.00 0.00 0.00 70 1013.1
20180817085623 20 354 3.2 9.7 0.00 0.00 0.00 70 1013.0
20180817085421 20 329 4.8 9.7 0.00 0.00 0.00 69 1013.0
20180817085220 20 73 1.6 9.7 0.00 0.00 0.00 69 1013.0
20180817085018 20 330 6.4 8.0 0.00 0.00 0.00 68 1012.9
20180817084816 20 355 3.2 8.0 0.00 0.00 0.00 68 1012.9
20180817084615 20 1 0.0 6.4 0.00 0.00 0.00 69 1012.9
20180817084413 20 323 1.6 6.4 0.00 0.00 0.00 69 1012.8
20180817084212 20 315 1.6 6.4 0.00 0.00 0.00 70 1012.8
20180817084010 19 9 4.8 9.7 0.00 0.00 0.00 70 1012.8
20180817083808 19 341 4.8 9.7 0.00 0.00 0.00 71 1012.8
20180817083607 19 322 0.0 6.4 0.00 0.00 0.00 71 1012.7
20180817083405 19 315 3.2 6.4 0.00 0.00 0.00 70 1012.8
20180817083204 19 331 6.4 6.4 0.00 0.00 0.00 69 1012.7
20180817083002 19 324 4.8 6.4 0.00 0.00 0.00 69 1012.7
20180817082801 19 99 0.0 6.4 0.00 0.00 0.00 70 1012.6
20180817082559 19 336 1.6 11.3 0.00 0.00 0.00 69 1012.7
20180817082358 19 63 1.6 11.3 0.00 0.00 0.00 69 1012.7
20180817082156 20 14 1.6 11.3 0.00 0.00 0.00 68 1012.7
20180817081955 20 312 4.8 6.4 0.00 0.00 0.00 67 1012.5
20180817081753 20 326 4.8 6.4 0.00 0.00 0.00 66 1012.6
20180817081552 20 113 3.2 6.4 0.00 0.00 0.00 67 1012.6
20180817081350 20 274 1.6 6.4 0.00 0.00 0.00 68 1012.5
20180817081148 19 184 1.6 6.4 0.00 0.00 0.00 67 1012.5
20180817080947 20 343 0.0 8.0 0.00 0.00 0.00 68 1012.5
20180817080745 20 286 0.0 8.0 0.00 0.00 0.00 68 1012.6
20180817080543 19 158 1.6 11.3 0.00 0.00 0.00 67 1012.6
20180817080342 20 320 3.2 11.3 0.00 0.00 0.00 67 1012.6
20180817080140 20 358 4.8 11.3 0.00 0.00 0.00 65 1012.6
20180817075939 20 5 0.0 11.3 0.00 0.00 0.00 65 1012.7
20180817075737 20 324 0.0 11.3 0.00 0.00 0.00 66 1012.7
20180817075536 20 320 4.8 8.0 0.00 0.00 0.00 66 1012.7
20180817075334 20 320 0.0 8.0 0.00 0.00 0.00 65 1012.7
20180817075133 20 310 1.6 6.4 0.00 0.00 0.00 64 1012.7
20180817074931 20 309 4.8 6.4 0.00 0.00 0.00 64 1012.6
20180817074730 20 292 6.4 6.4 0.00 0.00 0.00 65 1012.6
20180817074528 20 184 0.0 12.9 0.00 0.00 0.00 66 1012.7
20180817074327 20 272 4.8 12.9 0.00 0.00 0.00 65 1012.7
20180817074125 20 327 4.8 8.0 0.00 0.00 0.00 64 1012.7
20180817073923 20 258 0.0 8.0 0.00 0.00 0.00 65 1012.6
20180817073722 20 289 1.6 8.0 0.00 0.00 0.00 65 1012.7
20180817073520 20 329 0.0 8.0 0.00 0.00 0.00 65 1012.6
20180817073319 20 345 3.2 8.0 0.00 0.00 0.00 65 1012.6
20180817073117 20 61 0.0 12.9 0.00 0.00 0.00 65 1012.6
20180817072916 20 322 1.6 12.9 0.00 0.00 0.00 64 1012.7
20180817072714 20 262 0.0 12.9 0.00 0.00 0.00 65 1012.7
20180817072512 20 126 4.8 6.4 0.00 0.00 0.00 63 1012.7
20180817072311 20 244 0.0 6.4 0.00 0.00 0.00 65 1012.6
20180817071908 20 135 3.2 8.0 0.00 0.00 0.00 66 1012.6
20180817071706 20 119 4.8 8.0 0.00 0.00 0.00 66 1012.7
20180817071505 20 300 3.2 4.8 0.00 0.00 0.00 67 1012.6
20180817071303 20 15 1.6 4.8 0.00 0.00 0.00 69 1012.6
20180817071102 20 178 0.0 6.4 0.00 0.00 0.00 69 1012.6
20180817070900 20 45 0.0 6.4 0.00 0.00 0.00 69 1012.6
20180817070658 20 299 3.2 6.4 0.00 0.00 0.00 69 1012.6
20180817070457 19 315 0.0 8.0 0.00 0.00 0.00 70 1012.6
20180817070255 19 39 0.0 8.0 0.00 0.00 0.00 70 1012.5
20180817070054 19 243 0.0 4.8 0.00 0.00 0.00 72 1012.5
20180817065852 19 45 3.2 4.8 0.00 0.00 0.00 72 1012.5
20180817065650 19 315 0.0 4.8 0.00 0.00 0.00 73 1012.5
20180817065449 19 316 1.6 6.4 0.00 0.00 0.00 77 1012.6
20180817065248 18 104 1.6 6.4 0.00 0.00 0.00 79 1012.5
20180817065045 18 315 4.8 4.8 0.00 0.00 0.00 81 1012.4
20180817064843 18 199 0.0 4.8 0.00 0.00 0.00 85 1012.4
20180817064642 17 174 1.6 4.8 0.00 0.00 0.00 86 1012.3
20180817064440 17 317 0.0 4.8 0.00 0.00 0.00 87 1012.3
20180817064239 16 319 1.6 4.8 0.00 0.00 0.00 89 1012.3
20180817064037 16 286 0.0 6.4 0.00 0.00 0.00 90 1012.3
20180817063836 16 322 0.0 6.4 0.00 0.00 0.00 89 1012.2
20180817063634 16 61 1.6 6.4 0.00 0.00 0.00 90 1012.2
20180817063433 16 78 0.0 3.2 0.00 0.00 0.00 90 1012.2
20180817063231 16 345 0.0 3.2 0.00 0.00 0.00 90 1012.1
20180817063029 16 358 0.0 3.2 0.00 0.00 0.00 90 1012.0
20180817062828 16 67 0.0 3.2 0.00 0.00 0.00 90 1012.0
20180817062626 16 324 0.0 4.8 0.00 0.00 0.00 91 1012.0
20180817062424 15 95 0.0 4.8 0.00 0.00 0.00 91 1012.0
20180817062223 15 75 0.0 4.8 0.00 0.00 0.00 91 1011.9
20180817062021 15 299 0.0 3.2 0.00 0.00 0.00 91 1011.9
20180817061820 15 333 0.0 3.2 0.00 0.00 0.00 91 1011.9
20180817061618 15 299 1.6 6.4 0.00 0.00 0.00 91 1011.9
20180817061417 15 315 0.0 6.4 0.00 0.00 0.00 91 1011.9
20180817061215 15 303 1.6 6.4 0.00 0.00 0.00 91 1012.0
20180817061014 15 71 1.6 3.2 0.00 0.00 0.00 91 1011.9
20180817060812 15 77 0.0 3.2 0.00 0.00 0.00 91 1012.0
20180817060611 15 56 0.0 3.2 0.00 0.00 0.00 91 1011.9
20180817060409 15 56 0.0 3.2 0.00 0.00 0.00 91 1011.9
20180817060208 15 265 0.0 3.2 0.00 0.00 0.00 91 1011.9
20180817060006 15 258 0.0 3.2 0.00 0.00 0.00 91 1011.9
20180817055804 15 181 0.0 3.2 0.00 0.00 0.00 91 1011.9
20180817055603 15 258 0.0 1.6 0.00 0.00 0.00 91 1012.0
20180817055401 15 282 1.6 1.6 0.00 0.00 0.00 91 1011.9
20180817055159 15 278 0.0 1.6 0.00 0.00 0.00 91 1011.9
20180817054958 15 324 0.0 1.6 0.00 0.00 0.00 91 1011.9
20180817054756 15 296 0.0 1.6 0.00 0.00 0.00 91 1011.9
20180817054555 15 309 0.0 4.8 0.00 0.00 0.00 91 1011.9
20180817054354 15 236 1.6 4.8 0.00 0.00 0.00 91 1011.8
20180817054152 15 236 0.0 4.8 0.00 0.00 0.00 91 1011.8
20180817053950 15 254 1.6 3.2 0.00 0.00 0.00 91 1011.8
20180817053749 16 322 3.2 3.2 0.00 0.00 0.00 91 1011.8
20180817053547 15 334 1.6 3.2 0.00 0.00 0.00 91 1011.8
20180817053346 15 108 1.6 3.2 0.00 0.00 0.00 91 1011.8
20180817053144 15 309 1.6 3.2 0.00 0.00 0.00 91 1011.8
20180817052943 15 59 0.0 4.8 0.00 0.00 0.00 91 1011.9
20180817052741 15 59 0.0 4.8 0.00 0.00 0.00 91 1011.9
20180817052539 15 108 0.0 3.2 0.00 0.00 0.00 91 1011.9
20180817052338 15 109 1.6 3.2 0.00 0.00 0.00 91 1011.9
20180817052136 15 248 0.0 3.2 0.00 0.00 0.00 91 1011.8
20180817051935 15 306 1.6 4.8 0.00 0.00 0.00 91 1011.8
20180817051733 15 329 1.6 4.8 0.00 0.00 0.00 91 1011.8
20180817051531 15 12 0.0 6.4 0.00 0.00 0.00 91 1011.8
20180817051330 15 309 0.0 6.4 0.00 0.00 0.00 91 1011.9
20180817051128 15 341 0.0 4.8 0.00 0.00 0.00 91 1011.9
20180817050927 15 347 0.0 4.8 0.00 0.00 0.00 91 1011.8
20180817050725 15 306 0.0 4.8 0.00 0.00 0.00 91 1011.7
20180817050524 15 261 1.6 8.0 0.00 0.00 0.00 91 1011.7
20180817050322 15 295 1.6 8.0 0.00 0.00 0.00 91 1011.7
20180817050121 15 338 1.6 4.8 0.00 0.00 0.00 91 1011.8
20180817045919 15 285 0.0 4.8 0.00 0.00 0.00 91 1011.7
20180817045718 15 310 0.0 4.8 0.00 0.00 0.00 91 1011.8
20180817045516 15 315 4.8 6.4 0.00 0.00 0.00 91 1011.7
20180817045315 15 345 0.0 6.4 0.00 0.00 0.00 91 1011.6
20180817045113 15 15 0.0 8.0 0.00 0.00 0.00 91 1011.6
20180817044911 15 265 0.0 8.0 0.00 0.00 0.00 91 1011.6
20180817044710 15 270 1.6 8.0 0.00 0.00 0.00 91 1011.6
20180817044508 15 310 3.2 3.2 0.00 0.00 0.00 91 1011.5
20180817044306 16 298 0.0 3.2 0.00 0.00 0.00 91 1011.6
20180817044105 15 94 0.0 3.2 0.00 0.00 0.00 92 1011.6
20180817043903 15 94 0.0 3.2 0.00 0.00 0.00 92 1011.6
20180817043702 15 226 0.0 3.2 0.00 0.00 0.00 92 1011.5
20180817043500 15 226 0.0 6.4 0.00 0.00 0.00 92 1011.5
20180817043259 16 345 0.0 6.4 0.00 0.00 0.00 92 1011.4
20180817043057 15 317 0.0 11.3 0.00 0.00 0.00 92 1011.4
20180817042856 15 337 4.8 11.3 0.00 0.00 0.00 92 1011.4
20180817042654 15 293 1.6 11.3 0.00 0.00 0.00 92 1011.4
20180817042453 15 317 4.8 9.7 0.00 0.00 0.00 92 1011.3
20180817042251 15 182 1.6 9.7 0.00 0.00 0.00 92 1011.3
20180817042050 15 293 3.2 11.3 0.00 0.00 0.00 92 1011.3
20180817041848 15 326 8.0 11.3 0.00 0.00 0.00 93 1011.3
20180817041646 15 316 4.8 11.3 0.00 0.00 0.00 93 1011.3
20180817041445 15 310 4.8 8.0 0.00 0.00 0.00 92 1011.3
20180817041243 15 341 3.2 8.0 0.00 0.00 0.00 92 1011.3
20180817041041 15 317 3.2 14.5 0.00 0.00 0.00 92 1011.3
20180817040840 15 157 0.0 14.5 0.00 0.00 0.00 93 1011.2
20180817040638 15 319 6.4 14.5 0.00 0.00 0.00 93 1011.1
20180817040437 15 272 3.2 12.9 0.00 0.00 0.00 93 1011.2
20180817040235 15 237 4.8 12.9 0.00 0.00 0.00 93 1011.2
20180817040034 15 319 4.8 11.3 0.00 0.00 0.00 93 1011.2
20180817035832 15 306 9.7 11.3 0.00 0.00 0.00 92 1011.3
20180817035631 15 109 6.4 11.3 0.00 0.00 0.00 92 1011.2
20180817035429 15 330 3.2 11.3 0.00 0.00 0.00 92 1011.3
20180817035228 16 340 1.6 11.3 0.00 0.00 0.00 92 1011.3
20180817035026 15 329 4.8 11.3 0.00 0.00 0.00 92 1011.3
20180817034825 16 331 1.6 11.3 0.00 0.00 0.00 92 1011.3
20180817034623 16 323 6.4 11.3 0.00 0.00 0.00 91 1011.3
20180817034421 15 307 1.6 11.3 0.00 0.00 0.00 91 1011.3
20180817034220 15 303 1.6 11.3 0.00 0.00 0.00 91 1011.3
20180817034018 16 317 1.6 9.7 0.00 0.00 0.00 91 1011.4
20180817033816 16 344 3.2 9.7 0.00 0.00 0.00 91 1011.3
20180817033615 16 323 4.8 12.9 0.00 0.00 0.00 91 1011.3
20180817033413 16 326 3.2 12.9 0.00 0.00 0.00 91 1011.3
20180817033212 16 309 4.8 12.9 0.00 0.00 0.00 91 1011.3
20180817033010 16 313 4.8 11.3 0.00 0.00 0.00 91 1011.2
20180817032809 16 296 4.8 11.3 0.00 0.00 0.00 91 1011.3
20180817032607 16 333 3.2 9.7 0.00 0.00 0.00 91 1011.3
20180817032406 16 323 4.8 9.7 0.00 0.00 0.00 91 1011.3
20180817032205 16 257 1.6 9.7 0.00 0.00 0.00 90 1011.4
20180817032003 16 32 0.0 9.7 0.00 0.00 0.00 90 1011.4
20180817031801 16 338 3.2 9.7 0.00 0.00 0.00 90 1011.4
20180817031600 16 278 1.6 11.3 0.00 0.00 0.00 90 1011.5
20180817031358 16 229 3.2 11.3 0.00 0.00 0.00 90 1011.5
20180817031156 16 232 0.0 11.3 0.00 0.00 0.00 90 1011.5
20180817030955 16 157 3.2 11.3 0.00 0.00 0.00 90 1011.5
20180817030753 16 196 3.2 11.3 0.00 0.00 0.00 90 1011.5
20180817030552 16 291 1.6 11.3 0.00 0.00 0.00 90 1011.5
20180817030350 16 268 3.2 11.3 0.00 0.00 0.00 90 1011.5
20180817030148 16 15 4.8 11.3 0.00 0.00 0.00 90 1011.5
20180817025947 16 300 0.0 9.7 0.00 0.00 0.00 90 1011.5
20180817025544 16 268 3.2 11.3 0.00 0.00 0.00 90 1011.5
20180817025342 16 246 0.0 11.3 0.00 0.00 0.00 89 1011.4
20180817025141 16 109 0.0 11.3 0.00 0.00 0.00 90 1011.4
20180817024939 16 220 4.8 11.3 0.00 0.00 0.00 89 1011.3
20180817024738 16 319 6.4 11.3 0.00 0.00 0.00 89 1011.4
20180817024536 16 305 4.8 11.3 0.00 0.00 0.00 89 1011.4